Location: Unspecified
(0.0000°N, 0.0000°E)
Time: 08:05:48
(UTC+00:00)

deb r/b Ablestar - Pass Details

Date: 14 October 2024
Orbit: 819 x 956 km, 66.7° (Epoch: 08 November)

Event Time Altitude Azimuth Distance (km) Brightness Sun altitude
Exits shadow 04:14:09 20° 340° (NNW) 2,047 ? -22.7°
Maximum altitude 04:18:42 88° 253° (WSW) 957 ? -21.6°
Drops below altitude 10° 04:25:00 10° 161° (SSE) 2,682 ? -20.0°
Sets 04:27:33 0° 161° (SSE) 3,625 ? -19.4°
